sat.trackr.live / text

‹ back to catalog

KUIPER-00617

NORAD 69776 · 2026-151P

PAYLOAD ACTIVE UNKNOWN

§ Identity

Operator
Country
US
Launch date
2026-07-02
Launch site
AFETR
Launch vehicle
Mass (kg)
RCS (m²)

External: N2YO · Heavens-Above · Gunter

§ Orbital elements

Epoch: 2026-09-20T04:37:41.465856Z

Period
97.30 min
Inclination
51.8989°
Eccentricity
0.0000475
Mean motion
14.79955045 rev/d
Perigee alt
629.1 km
Apogee alt
629.8 km
Semi-major
7,007.6 km
B*
2.8687e-4
RAAN
225.5564°
Arg perigee
172.2909°
Mean anomaly
187.8061°
Rev number
1,219

§ Raw data

KUIPER-006171 69776U 26151P   26263.19284104  .00001968  00000+0  28687-3 0  99952 69776  51.8989 225.5564 0000475 172.2909 187.8061 14.79955045 12195

JSON: /api/v1/satellites/69776 · /tle

For live sub-satellite position, see the globe view (requires WebGL).

§ Visibility from observer

Set your observer location to see the next 7 days of passes ≥ 10°. The values pass through the URL so the page stays shareable.

No JS? Fill the form by hand. The geolocation button needs JavaScript.